Location: Bacharowice
(49.9333°N, 19.5833°E)
Time: 02:18:07
(UTC+00:00)

BlueWalker 3 - Visible Passes

Search period start: 01 February 2023 00:00
Search period end: 11 February 2023 00:00
Orbit: 499 x 517 km, 53.2° (Epoch: 31 January)

Date Brightness Start Highest point End Pass type
(mag) Time Alt. Az. Time Alt. Az. Time Alt. Az.
01 Feb 2.3 17:29:55 10° W 17:33:44 53° N 17:34:32 44° NE visible
01 Feb 5.1 19:08:49 10° WNW 19:09:19 13° WNW 19:09:19 13° WNW visible
02 Feb 2.4 17:10:59 10° W 17:14:48 52° N 17:16:24 30° NE visible
02 Feb 4.5 18:49:53 10° WNW 18:51:11 20° WNW 18:51:11 20° WNW visible
03 Feb 2.4 16:52:03 10° W 16:55:52 52° N 16:58:16 21° ENE visible
03 Feb 3.7 18:30:56 10° WNW 18:33:03 30° WNW 18:33:03 30° WNW visible
04 Feb 2.4 16:33:06 10° W 16:36:54 52° N 16:40:08 14° ENE visible
04 Feb 2.8 18:11:59 10° WNW 18:14:55 47° NW 18:14:55 47° NW visible
05 Feb 2.4 16:14:09 10° W 16:17:57 51° N 16:21:46 10° ENE visible
05 Feb 1.9 17:53:00 10° WNW 17:56:49 70° N 17:56:49 70° N visible
06 Feb 1.9 17:34:02 10° WNW 17:37:55 72° NNE 17:38:44 52° E visible
06 Feb 5.0 19:12:49 10° WNW 19:13:32 14° W 19:13:32 14° W visible
07 Feb 1.9 17:15:03 10° WNW 17:18:56 73° NNE 17:20:43 31° E visible
07 Feb 4.4 18:53:51 10° WNW 18:55:31 21° W 18:55:31 21° W visible
08 Feb 1.9 16:56:03 10° WNW 16:59:57 75° NNE 17:02:45 18° ESE visible
08 Feb 3.7 18:34:52 10° WNW 18:37:34 29° WSW 18:37:34 29° WSW visible
09 Feb 1.9 16:37:03 10° WNW 16:40:56 77° NNE 16:44:51 10° ESE visible
09 Feb 3.4 18:15:53 10° W 18:19:21 31° SW 18:19:42 30° SSW visible
10 Feb 1.9 16:18:02 10° WNW 16:21:55 79° NNE 16:25:50 10° ESE visible
10 Feb 3.6 17:56:53 10° W 18:00:19 30° SW 18:01:58 21° S visible
